Flag for Norway Weather past 2 weeks in Melhus, Norway

Now
34 °F

Scattered showers. Passing clouds.


Feels Like: 23 °F
Forecast: 26 / 34 °F
Wind: 18 mph from West

Location: Trondheim / Vaernes

Current Time: Dec 20, 2014 at 11:02:39 PM

Latest Report: Dec 20, 2014 at 10:20 PM


Visibility: N/A

Pressure: 29.56 "Hg

Humidity: 87%

Dew point: 30 °F

Location of MelhusLocation

Historic Weather in Melhus — Graph

°F

Melhus temperature yesterday

Maximum temperature yesterday: 30 °F (at 12:20 AM)
Minimum temperature yesterday: 21 °F (at 5:50 AM)
Average temperature yesterday: 24 °F

Past Weeks' High & Low Weather Summary

 TemperatureHumidityPressure
High46 °F (Dec 14, 9:50 PM)100% (Dec 15, 4:20 PM)29.86 "Hg (Dec 15, 4:20 PM)
Low10 °F (Dec 17, 4:50 AM)48% (Dec 14, 3:50 PM)28.80 "Hg (Dec 11, 7:20 AM)
Average32 °F74%29.20 "Hg
* Reported Dec 5 9:20 PM — Dec 20 9:50 PM, Melhus, Weather by CustomWeather, © 2014

Note: Actual official high and low records may vary slightly from our data, if they occured in-between our weather recording intervals... More about our weather records

Advertising

Melhus weather history for previous 24 hours

 ConditionsComfort  
Time TempWeatherWind HumidityBarometerVisibility
9:50 PM
Dec 20
34 °FScattered showers. Passing clouds.24 mph87%29.53 "HgN/A
9:20 PM36 °FPassing clouds.14 mph75%29.50 "HgN/A
8:50 PM36 °FPartly cloudy.10 mph81%29.50 "HgN/A
8:20 PM36 °FPartly cloudy.15 mph81%29.50 "HgN/A
7:50 PM36 °FPartly cloudy.8 mph87%29.45 "HgN/A
7:20 PM34 °FLight rain. Partly cloudy.14 mph93%29.45 "HgN/A
6:50 PM37 °FPassing clouds.14 mph81%29.42 "HgN/A
6:20 PM36 °FSprinkles. Passing clouds.16 mph93%29.39 "HgN/A
5:50 PM37 °FRain showers. Passing clouds.17 mph87%29.36 "HgN/A
5:20 PM37 °FPartly cloudy.12 mph87%29.33 "HgN/A
4:50 PM37 °FPartly cloudy.12 mph87%29.30 "HgN/A
4:20 PM36 °FPartly cloudy.13 mph93%29.30 "HgN/A
3:50 PM37 °FPassing clouds.16 mph87%29.27 "HgN/A
3:20 PM36 °FPassing clouds.14 mph93%29.24 "HgN/A
2:50 PM36 °FPassing clouds.14 mph93%29.24 "HgN/A
2:20 PM36 °FLight rain. Broken clouds.12 mph93%29.21 "HgN/A
1:50 PM36 °FLight rain. Overcast.15 mph93%29.21 "HgN/A
1:20 PM36 °FBroken clouds.13 mph93%29.18 "HgN/A
12:50 PM36 °FLight rain. Broken clouds.16 mph93%29.15 "HgN/A
12:20 PM36 °FPartly sunny.16 mph87%29.15 "HgN/A
11:50 AM36 °FLight rain. Mostly cloudy.14 mph87%29.12 "HgN/A
11:20 AM36 °FScattered showers. Low clouds.14 mph87%29.12 "Hg4 mi
10:50 AM36 °FLight rain. Fog.16 mph87%29.09 "Hg2 mi
10:20 AM36 °FLight rain. Broken clouds.16 mph81%29.09 "Hg4 mi
9:50 AM36 °FScattered showers. Passing clouds.15 mph81%29.09 "HgN/A
9:20 AM36 °FPassing clouds.16 mph81%29.06 "HgN/A
8:50 AM36 °FPartly cloudy.14 mph81%29.06 "HgN/A
8:20 AM36 °FScattered showers. Partly cloudy.14 mph81%29.03 "HgN/A
7:50 AM32 °FPartly cloudy.8 mph100%29.03 "HgN/A
7:20 AM32 °FSleet. Partly cloudy.1 mph93%29.03 "HgN/A
6:50 AM30 °FSleet. Partly cloudy.3 mph93%29.03 "HgN/A
6:20 AM30 °FLight snow. Partly cloudy.2 mph93%29.00 "HgN/A
5:50 AM28 °FPartly cloudy.6 mph93%29.00 "HgN/A
5:20 AM28 °FPartly cloudy.6 mph93%29.00 "HgN/A
3:50 AM28 °FPartly cloudy.7 mph93%29.00 "HgN/A
2:50 AM28 °FPassing clouds.6 mph93%29.00 "HgN/A
2:20 AM28 °FPartly cloudy.6 mph93%28.97 "HgN/A
1:50 AM27 °FLight snow. Partly cloudy.5 mph93%28.97 "HgN/A
12:50 AM27 °FPassing clouds.7 mph93%28.97 "HgN/A
12:20 AM27 °FLight snow. Ice fog.7 mph86%28.97 "Hg4 mi
11:50 PM
Dec 19
25 °FPartly cloudy.8 mph93%28.97 "HgN/A
11:20 PM25 °FSleet. Ice fog.7 mph93%28.97 "HgN/A
Weather by CustomWeather, © 2014

See weather overviewHow to use our weather pages